www.pogodaiklimat.ru

Погода и климат >> Архив погоды >> Германия >> Berlin


АРХИВ ПОГОДЫ в Berlin

Время (UTC), дата Ветер
(напр.,м/с)
 
Видим.   Явления Облачность Т
(С)
Тd
(С)
f
(%)
Тe
(С)
Тes
(С)
Комфортность P
(гПа)
Po
(гПа)
Тmin
(С)
Tmax
(С)
R
(мм)
R24
(мм)
S
(см)
19 10.07 ЮВ 2-3
{4}
н/о н/о +16.9 +10.7 67 +17 +17 прохладно 1015.8 1010.0
20 10.07 штиль 0-1
{3}
н/о н/о +16.5 +10.6 68 +16 +16 прохладно 1015.8 1010.0
21 10.07 С 1-1
{4}
н/о н/о +15.9 +10.7 71 +17 +17 прохладно 1015.4 1009.6
23 10.07 СВ 1-2
{4}
н/о н/о +14.4 +12.8 90 +15 +15 по сезону 1015.9 1010.0
22 10.07 СВ 3-4
{4}
н/о н/о +14.7 +12.4 86 +14 +14 по сезону 1016.0 1010.1
00 11.07 С 1 н/о н/о +14.4 +13.2 92 +15 +15 по сезону 1015.3 1009.4 6
01 11.07 Ю 1-2
{2}
н/о н/о +14.8 +13.1 90 +15 +15 по сезону 1014.6 1008.8
02 11.07 ЮЗ 1-1
{2}
н/о н/о +14.9 +13.2 90 +15 +15 по сезону 1014.2 1008.4
03 11.07 ЮЗ 2-2
{2}
н/о н/о +15.1 +13.4 90 +15 +15 по сезону 1014.2 1008.4 0.1
05 11.07 ЮЗ 1-2
{2}
н/о н/о +15.3 +13.5 89 +16 +16 по сезону 1014.4 1008.6
04 11.07 ЮЗ 2-2
{3}
н/о н/о +15.1 +13.6 91 +15 +15 по сезону 1014.3 1008.5
06 11.07 ЮЗ 2 н/о н/о +15.8 +13.5 86 +16 +16 по сезону 1014.3 1008.5 +14.3 +17.5 6
07 11.07 З 1-2
{3}
н/о н/о +16.8 +13.2 79 +18 +18 прохладно 1014.6 1008.8
08 11.07 СВ 2-3
{3}
н/о н/о +18.4 +11.5 64 +19 +19 по сезону 1014.3 1008.5
09 11.07 С 2 н/о н/о +19.8 +12.0 61 +22 +22 комфорт 1014.3 1008.6 0.0
11 11.07 СВ 2-4
{5}
н/о н/о +20.9 +11.0 53 +24 +24 комфорт 1014.0 1008.3
10 11.07 СЗ 1-2
{4}
н/о н/о +19.9 +11.7 59 +23 +23 комфорт 1014.1 1008.4
12 11.07 ЮВ 2-3
{6}
н/о н/о +21.9 +10.2 47 +24 +24 комфорт 1013.8 1008.1 0.0
13 11.07 В 2-4
{4}
н/о н/о +23.8 +9.7 41 +25 +25 комфорт 1013.3 1007.6
14 11.07 СВ 1-3
{6}
н/о н/о +22.6 +9.7 44 +24 +24 комфорт 1012.9 1007.2
15 11.07 ЮЗ 2-4
{7}
н/о н/о +20.5 +11.7 57 +23 +23 комфорт 1013.1 1007.4 0.1
17 11.07 С 4 н/о н/о +21.4 +11.1 52 +23 +23 комфорт 1013.0 1007.3
16 11.07 С 2-4
{4}
н/о н/о +22.5 +10.9 48 +25 +25 комфорт 1013.0 1007.3
18 11.07 СВ 3 н/о н/о +21.8 +12.7 56 +24 +24 комфорт 1012.9 1007.2 +15.7 +24.8 0.0
19 11.07 С 3-5
{5}
н/о н/о +20.0 +12.7 63 +22 +22 комфорт 1013.3 1007.6
20 11.07 Ю 2-6
{6}
н/о н/о +18.9 +12.4 66 +20 +20 тепло 1013.8 1008.0
21 11.07 СЗ 3-4
{6}
н/о н/о +17.0 +14.5 85 +17 +17 по сезону 1014.5 1008.7 0.8
23 11.07 З 3-4
{4}
н/о н/о +15.3 +14.1 93 +15 +15 по сезону 1013.8 1008.0
22 11.07 З 2-2
{8}
н/о н/о +15.6 +14.5 93 +15 +15 по сезону 1014.7 1008.9
00 12.07 СЗ 3 н/о н/о +15.4 +14.3 93 +15 +15 по сезону 1013.3 1007.5 11
01 12.07 СЗ 3-4
{4}
н/о н/о +15.4 +14.3 93 +15 +15 по сезону 1013.3 1007.5
02 12.07 З 3-5
{6}
н/о н/о +15.4 +14.2 93 +15 +15 по сезону 1013.0 1007.2
03 12.07 З 3-5
{6}
н/о н/о +14.9 +13.9 94 +14 +14 прохладно 1012.7 1006.9 5
05 12.07 З 5-7
{7}
н/о н/о +15.1 +14.3 95 +14 +14 прохладно 1011.1 1005.3
04 12.07 З 4-6
{6}
н/о н/о +14.7 +13.9 95 +13 +13 прохладно 1012.0 1006.2
06 12.07 С 7 н/о н/о +16.3 +15.5 95 +15 +15 прохладно 1010.5 1004.7 +14.7 +21.7 35
07 12.07 С 6-9
{9}
н/о н/о +17.6 +16.2 91 +17 +17 прохладно 1011.0 1005.2
08 12.07 СЗ 5-8
{9}
н/о н/о +17.1 +16.2 94 +16 +16 холодно 1011.1 1005.3
09 12.07 С 4 н/о н/о +17.0 +15.9 93 +17 +17 прохладно 1011.4 1005.6 12
11 12.07 СЗ 7-8
{10}
н/о н/о +17.6 +15.9 90 +17 +17 очень
холодно
1012.4 1006.6
10 12.07 С 7-11
{11}
н/о н/о +17.1 +15.1 88 +16 +16 очень
холодно
1012.0 1006.2
12 12.07 СЗ 7-10
{13}
н/о н/о +19.4 +15.8 80 +21 +21 комфорт 1012.6 1006.9 2
13 12.07 СЗ 8-11
{12}
н/о н/о +18.3 +15.5 84 +18 +18 холодно 1013.0 1007.2
14 12.07 СЗ 8-11
{11}
н/о н/о +19.0 +14.3 74 +19 +19 холодно 1013.2 1007.5
15 12.07 СЗ 5-7
{12}
н/о н/о +18.7 +14.0 74 +19 +19 прохладно 1013.0 1007.2 0.6
17 12.07 СЗ 4-5
{7}
н/о н/о +18.1 +14.2 78 +18 +18 холодно 1013.6 1007.8
16 12.07 СЗ 4-7
{8}
н/о н/о +19.5 +13.1 66 +21 +21 комфорт 1013.4 1007.7
18 12.07 С 4 н/о н/о +18.4 +14.7 79 +19 +19 прохладно 1013.8 1008.0 +16.3 +19.6 0.4
19 12.07 С 4-5
{7}
н/о н/о +18.4 +14.5 78 +19 +19 по сезону 1014.1 1008.3
20 12.07 СЗ 3-3
{5}
н/о н/о +17.8 +14.9 83 +18 +18 по сезону 1014.8 1009.0
21 12.07 СЗ 2-3
{7}
н/о н/о +18.0 +15.0 83 +19 +19 по сезону 1014.9 1009.1 0.0
23 12.07 З 2-3
{3}
н/о н/о +17.9 +15.4 85 +18 +18 тепло 1015.4 1009.6
22 12.07 З 2-2
{3}
н/о н/о +18.0 +15.4 85 +19 +19 тепло 1015.2 1009.4
00 13.07 СЗ 2 н/о н/о +17.5 +15.4 87 +18 +18 тепло 1015.3 1009.5 0.0
01 13.07 СЗ 2-3
{4}
н/о н/о +17.5 +14.6 83 +18 +18 тепло 1015.4 1009.6
02 13.07 СЗ 3-4
{4}
н/о н/о +16.6 +14.5 87 +16 +16 по сезону 1015.5 1009.7
03 13.07 З 1-2
{4}
н/о н/о +16.0 +14.0 88 +17 +17 по сезону 1015.6 1009.8
05 13.07 З 3-4
{5}
н/о н/о +17.0 +13.7 81 +17 +17 по сезону 1016.2 1010.4
04 13.07 З 3-4
{5}
н/о н/о +15.9 +13.1 83 +15 +15 по сезону 1016.0 1010.2
06 13.07 З 4 н/о н/о +18.1 +14.4 79 +18 +18 по сезону 1016.6 1010.8 +15.7 +18.6 0.0
07 13.07 З 4-6
{6}
н/о н/о +18.4 +14.6 79 +19 +19 прохладно 1016.8 1011.0
08 13.07 З 5-8
{8}
н/о н/о +18.4 +15.3 82 +19 +19 по сезону 1017.2 1011.4
09 13.07 З 4 н/о н/о +18.0 +15.4 85 +18 +18 прохладно 1017.5 1011.7 0.2
11 13.07 З 5 н/о н/о +21.2 +15.0 68 +24 +24 комфорт 1017.5 1011.8
10 13.07 З 4-6
{7}
н/о н/о +19.7 +14.8 73 +22 +22 комфорт 1017.7 1011.9
12 13.07 СЗ 5-7
{8}
н/о н/о +23.2 +15.2 61 +27 +27 душно 1017.2 1011.5
13 13.07 СЗ 6-8
{9}
н/о н/о +25.2 +14.2 50 +28 +28 жарко 1016.8 1011.2
14 13.07 СЗ 6-10
{10}
н/о н/о +27.1 +13.7 44 +29 +29 жарко 1016.5 1010.9
15 13.07 СЗ 6-9
{12}
н/о н/о +27.7 +13.6 42 +30 +30 жарко 1016.1 1010.5
17 13.07 С 4-6
{12}
н/о н/о +24.1 +10.6 43 +25 +25 комфорт 1016.2 1010.5
16 13.07 З 6-9
{9}
н/о н/о +27.8 +12.7 39 +29 +29 жарко 1015.8 1010.2
18 13.07 С 5 н/о н/о +23.1 +11.1 47 +25 +25 комфорт 1016.8 1011.1 +17.4 +28.0 0.0
19 13.07 СВ 3-4
{6}
н/о н/о +21.3 +12.2 56 +23 +23 комфорт 1017.4 1011.7
20 13.07 СЗ 3-4
{4}
н/о н/о +20.5 +13.1 62 +23 +23 комфорт 1017.6 1011.9
21 13.07 З 2-2
{6}
н/о н/о +20.2 +13.8 67 +23 +23 комфорт 1017.8 1012.0
23 13.07 СЗ 3-5
{6}
н/о н/о +19.1 +13.7 71 +21 +21 комфорт 1018.0 1012.2
22 13.07 З 1-2
{4}
н/о н/о +19.5 +13.9 70 +22 +22 комфорт 1018.0 1012.2
00 14.07 СЗ 3 н/о н/о +18.4 +13.8 75 +19 +19 тепло 1018.0 1012.2
01 14.07 СЗ 3-5
{5}
н/о н/о +17.8 +14.2 79 +18 +18 тепло 1018.2 1012.4
02 14.07 СЗ 3-5
{5}
н/о н/о +17.2 +14.1 82 +17 +17 по сезону 1018.4 1012.6
03 14.07 СЗ 4-6
{7}
н/о н/о +16.4 +13.7 84 +16 +16 по сезону 1018.4 1012.6
05 14.07 СЗ 4-5
{6}
н/о н/о +15.6 +13.4 87 +15 +15 по сезону 1018.7 1012.9
04 14.07 СЗ 4-6
{7}
н/о н/о +15.8 +13.5 86 +15 +15 по сезону 1018.5 1012.7
06 14.07 СЗ 4 н/о н/о +17.0 +13.5 80 +17 +17 по сезону 1018.9 1013.1 +15.6 +23.0 0.0
07 14.07 СЗ 3-5
{5}
н/о н/о +18.5 +13.9 75 +19 +19 прохладно 1019.3 1013.5
08 14.07 СЗ 4-6
{6}
н/о н/о +19.9 +14.0 69 +22 +22 комфорт 1019.5 1013.7
09 14.07 СЗ 5 н/о н/о +20.7 +13.1 62 +23 +23 комфорт 1019.5 1013.7
11 14.07 СЗ 5-8
{9}
н/о н/о +21.6 +12.6 57 +24 +24 комфорт 1019.3 1013.6
10 14.07 З 5-7
{9}
н/о н/о +20.7 +12.2 58 +23 +23 комфорт 1019.6 1013.8
12 14.07 СЗ 5-8
{9}
н/о н/о +22.8 +12.3 52 +26 +26 жарко 1019.2 1013.5
13 14.07 СЗ 5-8
{8}
н/о н/о +23.4 +12.6 51 +26 +26 жарко 1018.6 1012.9
14 14.07 СЗ 5-7
{9}
н/о н/о +24.3 +13.0 49 +26 +26 жарко 1018.2 1012.5
15 14.07 С 6-8
{9}
н/о н/о +23.4 +13.0 52 +26 +26 жарко 1017.7 1012.0
17 14.07 С 4-6
{8}
н/о н/о +22.6 +12.3 52 +25 +25 комфорт 1017.4 1011.7
16 14.07 С 5-7
{8}
н/о н/о +23.1 +12.6 52 +26 +26 жарко 1017.5 1011.8
18 14.07 СЗ 4 н/о н/о +21.9 +11.8 53 +24 +24 комфорт 1017.4 1011.7 +16.9 +24.6
19 14.07 С 5-6
{7}
н/о н/о +20.3 +11.1 55 +22 +22 комфорт 1017.6 1011.8
20 14.07 С 4-6
{6}
н/о н/о +18.7 +11.2 62 +19 +19 по сезону 1018.1 1012.3
21 14.07 С 4-6
{7}
н/о н/о +17.4 +11.4 68 +17 +17 прохладно 1018.4 1012.6
23 14.07 СВ 2-4
{5}
н/о н/о +15.0 +10.4 74 +15 +15 по сезону 1018.7 1012.8
22 14.07 С 4-5
{6}
н/о н/о +16.4 +10.7 69 +16 +16 по сезону 1018.5 1012.7
00 15.07 С 2 н/о н/о +14.5 +10.2 75 +14 +14 прохладно 1018.5 1012.6
01 15.07 СВ 1-1
{2}
н/о н/о +14.2 +10.3 77 +15 +15 по сезону 1018.4 1012.5
02 15.07 штиль 0-1
{1}
н/о н/о +13.6 +10.3 80 +13 +13 прохладно 1018.3 1012.4
03 15.07 З 1-1
{2}
н/о н/о +13.2 +10.5 84 +13 +13 прохладно 1018.2 1012.3
05 15.07 СЗ 1-2
{2}
н/о н/о +15.5 +12.7 83 +16 +16 по сезону 1018.5 1012.6
04 15.07 ЮЗ 1-1
{1}
н/о н/о +13.6 +11.3 86 +14 +14 прохладно 1018.3 1012.4
06 15.07 СЗ 3 н/о н/о +17.5 +10.6 64 +18 +18 по сезону 1018.6 1012.8 +13.0 +21.8 0.0
07 15.07 СЗ 4-6
{6}
н/о н/о +18.5 +10.8 61 +19 +19 прохладно 1018.6 1012.8
08 15.07 С 4-8
{8}
н/о н/о +19.7 +9.1 50 +21 +21 комфорт 1018.5 1012.7
09 15.07 С 4 н/о н/о +20.5 +9.5 49 +22 +22 комфорт 1018.4 1012.6 0.0
11 15.07 СЗ 3-5
{6}
н/о н/о +22.6 +9.7 44 +24 +24 комфорт 1017.9 1012.2
10 15.07 СЗ 4-7
{7}
н/о н/о +21.6 +9.7 47 +23 +23 комфорт 1018.1 1012.4
12 15.07 СВ 3-6
{8}
н/о н/о +22.7 +9.4 43 +24 +24 комфорт 1017.4 1011.7
13 15.07 С 4-6
{6}
н/о н/о +23.6 +10.5 44 +25 +25 комфорт 1016.9 1011.2
14 15.07 СЗ 4-7
{7}
н/о н/о +24.9 +10.9 41 +26 +26 жарко 1016.4 1010.7
15 15.07 С 3-6
{7}
н/о н/о +24.9 +10.7 41 +26 +26 жарко 1015.9 1010.2 0.0
17 15.07 СВ 3-5
{6}
н/о н/о +25.0 +11.1 42 +26 +26 жарко 1015.2 1009.5
16 15.07 СВ 3-5
{6}
н/о н/о +25.2 +11.3 42 +27 +27 жарко 1015.3 1009.7
18 15.07 СВ 3 н/о н/о +24.5 +11.0 43 +26 +26 жарко 1015.1 1009.4 +17.6 +25.5 0.0
19 15.07 СВ 3-4
{5}
н/о н/о +23.0 +10.9 46 +25 +25 комфорт 1015.4 1009.7
20 15.07 СВ 1-2
{4}
н/о н/о +20.9 +10.8 52 +24 +24 комфорт 1015.7 1010.0
21 15.07 СЗ 1-1
{5}
н/о н/о +19.5 +11.5 60 +22 +22 комфорт 1015.7 1009.9
23 15.07 В 1-2
{3}
н/о н/о +17.5 +13.4 77 +19 +19 тепло 1016.1 1010.3
22 15.07 СВ 2-3
{4}
н/о н/о +17.6 +12.0 70 +18 +18 тепло 1016.0 1010.2
00 16.07 СВ 2 н/о н/о +16.9 +13.9 82 +17 +17 по сезону 1016.2 1010.4
01 16.07 СЗ 1-1
{3}
н/о н/о +16.7 +13.8 83 +18 +18 тепло 1016.0 1010.2
02 16.07 С 1-1
{2}
н/о н/о +15.9 +13.5 86 +17 +17 по сезону 1015.9 1010.1
03 16.07 СВ 1-1
{3}
н/о н/о +15.4 +13.5 88 +16 +16 по сезону 1015.9 1010.1
05 16.07 СВ 1-1
{1}
н/о н/о +17.8 +14.9 83 +19 +19 тепло 1015.7 1009.9
04 16.07 С 1-1
{1}
н/о н/о +15.6 +13.5 87 +16 +16 по сезону 1015.9 1010.1
06 16.07 СВ 1 н/о н/о +19.8 +13.3 66 +23 +23 комфорт 1015.5 1009.8 +15.2 +24.3
07 16.07 СВ 2-3
{3}
н/о н/о +21.1 +13.3 61 +23 +23 комфорт 1015.3 1009.6
08 16.07 СЗ 1-4
{4}
н/о н/о +22.5 +13.4 56 +25 +25 комфорт 1015.1 1009.4
09 16.07 СЗ 3 н/о н/о +23.6 +12.7 50 +26 +26 жарко 1014.9 1009.2
11 16.07 СЗ 3-5
{6}
н/о н/о +25.7 +11.4 41 +27 +27 жарко 1014.1 1008.5
10 16.07 С 3-6
{7}
н/о н/о +24.7 +11.2 43 +26 +26 жарко 1014.7 1009.0
12 16.07 З 3-6
{7}
н/о н/о +27.0 +12.3 40 +28 +28 жарко 1013.7 1008.1
13 16.07 СЗ 2-4
{6}
н/о н/о +27.7 +11.2 36 +29 +29 жарко 1012.9 1007.3
14 16.07 В 2-3
{6}
н/о н/о +27.2 +11.0 36 +28 +28 жарко 1012.2 1006.6
15 16.07 С 4-7
{7}
н/о н/о +28.2 +10.5 33 +29 +29 жарко 1011.8 1006.2 0.0
17 16.07 СВ 2-4
{7}
н/о н/о +27.7 +11.2 36 +29 +29 жарко 1011.4 1005.8
16 16.07 СВ 3-5
{6}
н/о н/о +27.8 +11.4 36 +29 +29 жарко 1011.6 1006.0
18 16.07 СВ 2 н/о н/о +27.1 +10.0 34 +28 +28 жарко 1011.2 1005.6 +19.9 +28.7 0.0
19 16.07 СВ 2-3
{4}
н/о н/о +25.4 +11.9 43 +27 +27 жарко 1011.5 1005.9
20 16.07 В 5-7
{11}
н/о н/о +22.6 +14.3 59 +26 +26 жарко 1012.2 1006.5
21 16.07 СВ 1-1
{11}
н/о н/о +21.0 +13.7 63 +25 +25 комфорт 1011.9 1006.2
23 16.07 СЗ 1-2
{2}
н/о н/о +19.0 +13.9 72 +21 +21 комфорт 1012.1 1006.4
22 16.07 ЮЗ 1-1
{2}
н/о н/о +20.1 +13.8 67 +23 +23 комфорт 1012.2 1006.5
00 17.07 СЗ 1 н/о н/о +18.9 +14.1 74 +21 +21 комфорт 1012.1 1006.4
01 17.07 СЗ 2-3
{3}
н/о н/о +19.1 +14.2 73 +21 +21 комфорт 1011.8 1006.1
02 17.07 С 1-2
{4}
н/о н/о +18.4 +13.9 75 +20 +20 тепло 1011.9 1006.1
03 17.07 С 2-3
{4}
н/о н/о +17.9 +13.3 74 +18 +18 тепло 1011.7 1005.9
05 17.07 СЗ 1-3
{3}
н/о н/о +19.8 +14.0 69 +23 +23 комфорт 1012.0 1006.3
04 17.07 С 2-3
{3}
н/о н/о +18.2 +13.0 72 +19 +19 тепло 1011.9 1006.1
06 17.07 СЗ 2 н/о н/о +20.6 +13.5 64 +24 +24 комфорт 1011.9 1006.2 +17.9 +27.3
07 17.07 С 3-4
{4}
н/о н/о +22.5 +13.3 56 +25 +25 комфорт 1012.2 1006.5
08 17.07 С 4-6
{6}
н/о н/о +23.7 +12.9 51 +26 +26 жарко 1011.9 1006.2
09 17.07 С 5 н/о н/о +24.9 +12.5 46 +27 +27 жарко 1011.8 1006.2
11 17.07 С 5-9
{9}
н/о н/о +27.8 +12.7 39 +29 +29 жарко 1011.5 1005.9
10 17.07 СЗ 5-7
{8}
н/о н/о +26.7 +12.6 42 +28 +28 жарко 1011.6 1006.0
12 17.07 СЗ 5-9
{9}
н/о н/о +28.3 +11.6 35 +29 +29 жарко 1011.1 1005.5
13 17.07 С 6-9
{11}
н/о н/о +29.0 +12.0 35 +30 +30 жарко 1010.8 1005.2
14 17.07 СЗ 6-10
{10}
н/о н/о +29.8 +12.4 34 +31 +31 жарко 1010.5 1005.0
15 17.07 СВ 6-8
{11}
н/о н/о +28.7 +12.5 37 +30 +30 жарко 1010.4 1004.8
17 17.07 СВ 7-12
{12}
н/о н/о +25.9 +16.2 55 +29 +29 душно 1011.0 1005.4
16 17.07 СВ 6-10
{11}
н/о н/о +27.3 +13.8 43 +29 +29 жарко 1010.4 1004.8
18 17.07 СВ 6 н/о н/о +24.6 +14.9 55 +27 +27 жарко 1011.1 1005.5 +20.6 +30.0

 

Местоположение метеостанции Berlin (Германия): широта 52.47 долгота 13.40 высота над уровнем моря 50 м.

В архиве по умолчанию представлена погода в Berlin за последнюю неделю. Архивные данные за месяц целиком и за предыдущие месяцы, начиная с января 2011 года, Вы можете получить, выбрав интересующий диапазон дат из раскрывающегося списка и нажав кнопку "Ввод!".


*Определитесь, кто Вы:
робот инопланетянин человек

Внимание! Время в таблицах - всемирное. Для получения местного времени необходимо прибавить поправку, которая в Berlin равна 1 ч.

Смотрите также архив погоды в соседних городах и на ближайших метеорологических станциях:

Погода в Berlin-Dahlem (Германия) (7 км)
Погода в Berlin-Tegel (Германия) (12 км)
Погода в Berlin-Schonefeld (Германия) (13 км)
Погода в Potsdam (Германия) (25 км)
Погода в Baruth (Германия) (42 км)
Погода в Lindenberg (Германия) (56 км)
Погода в Neuruppin (Германия) (62 км)
Погода в Angermuende (Германия) (74 км)
Погода в Wiesenburg (Германия) (74 км)
Погода в Manschnow (Германия) (78 км)

Пояснения к столбцам:

Ветер - указаны скорость ветра в м/с - средняя за 10 мин, порывы в срок и между сроками (в фигурных скобках) и направление, откуда дует ветер: С - северный, СВ - северо-восточный, В - восточный, ЮВ - юго-восточный, Ю - южный, ЮЗ - юго-западный, З - западный, СЗ - северо-западный.
Видимость - горизонтальная дальность видимости в метрах или километрах. При видимости от 1 до 10 км при отсутствии осадков обычно наблюдается дымка, при ухудшении видимости до 1 км и менее - туман. В сухую погоду видимость может ухудшаться дымом, пылью или мглою.
Явления - указаны атмосферные явления, наблюдавшиеся в срок или в последний час перед сроком; фигурными скобками обозначены явления, наблюдавшиеся между сроками (за 1-3 часа до срока); квадратными скобками обозначены град или гололедные отложения с указанием их диаметра в мм.
Облачность - указаны через наклонную черту общая и нижняя облачность в баллах и высота нижней границы облаков в метрах; квадратными скобками обозначены формы облаков: Ci - перистые, Cs - перисто-слоистые, Cc - перисто-кучевые, Ac - высококучевые, As - высокослоистые, Sc - слоисто-кучевые, Ns - слоисто-дождевые, Cu - кучевые, Cb - кучево-дождевые. Подробнее классификацию облаков см. в Атласе облаков (PDF).
T - Температура воздуха - температура, измеренная на высоте 2 м над землей.
Td - Температура точки росы - температура, при понижении до которой содержащийся в воздухе водяной пар достигнет насыщения.
f - Относительная влажность воздуха - влажноcть воздуха, измеренная на высоте 2 м над землей.
Te - Эффективная температура - температура, которую ощущает одетый по сезону человек в тени. Характеристика душности погоды. При расчете учитывается влияние влажности воздуха и скорости ветра на теплоощущения человека.
Tes - Эффективная температура на солнце - температура, которую ощущает человек, с поправкой на солнечный нагрев. Характеристика знойности погоды. Зависит от высоты солнца над горизонтом, облачности и скорости ветра. Ночью, в пасмурную погоду, а также при ветре 12 м/с и более поправка равна нулю.
P - Атмосферное давление - приведенное к уровню моря атмосферное давление.
Po - Атмосферное давление - измеренное на уровне метеостанции атмосферное давление.
Tmin - Минимальная температура - минимум температуры воздуха на высоте 2 м над землей.
Tmax - Максимальная температура - максимум температуры воздуха на высоте 2 м над землей.
R - Количество осадков - Количество выпавших осадков за период времени, мм. При наведении курсора мыши на число - период времени, за который выпало указанное количество осадков.
R24 - Количество осадков - Количество выпавших осадков за 24 часа, мм.
S - Снежный покров - Высота снежного покрова, см. При наведении курсора мыши на число - состояние снежного покрова и степень покрытия местности в баллах.